Simultaneous Nadir Overpasses (SNOs) Predictions

Prediction of SNOs between AQUA and GOES-15 Satellite Orbit:

Table of predicted SNOs for the next 14.0 days since TLE Epoch: 7/5/2025
Index Date Time (AQUA) AQUA Lat,Lon GOES-15 Lat,Lon Distance(km) Time Diff (sec)
1 07/06/2025 10:28:18 0.98, 64.15 0.34, 61.24 331.12 80
2 07/06/2025 22:47:27 -0.00, 59.52 -0.36, 61.29 200.95 80
3 07/08/2025 22:27:05 -1.04, 64.51 -0.36, 61.30 364.75 80
4 07/09/2025 10:46:23 0.09, 59.84 0.38, 61.26 161.20 80
5 07/11/2025 10:26:01 1.15, 64.83 0.38, 61.28 404.28 80
6 07/11/2025 22:45:10 -0.18, 60.20 -0.39, 61.33 127.64 80
7 07/13/2025 22:24:47 -1.20, 65.20 -0.39, 61.35 437.54 80
8 07/14/2025 10:44:04 0.21, 60.54 0.40, 61.31 88.81 80
9 07/16/2025 10:23:42 1.33, 65.52 0.40, 61.34 476.51 80
10 07/16/2025 22:42:49 -0.30, 60.90 -0.41, 61.38 55.07 80
11 07/19/2025 10:41:43 0.40, 61.23 0.42, 61.39 17.81 80
